Location: Bauersach School (historical)
(38.0926°N, 89.4806°W)
Time: 02:38:19
(UTC+00:00)

Cosmos 1898 Rocket - Pass Details

Date: 11 December 2025
Orbit: 749 x 779 km, 74.0° (Epoch: 15 January)

Event Time Altitude Azimuth Distance (km) Brightness Sun altitude
Rises 23:19:57 0° 168° (SSE) 3,179 6.8 -8.2°
Reaches altitude 10° 23:22:36 10° 156° (SSE) 2,259 5.9 -8.7°
Maximum altitude 23:26:51 27° 99° (E) 1,404 4.4 -9.4°
Enters shadow 23:31:09 10° 43° (NE) 2,273 5.4 -10.2°
